Year,Month,Day,Hour,Minute,Value (Times are PST for temperature in C)
2022,03,01,00,00,-20.50
2022,03,01,00,01,-20.50
2022,03,01,00,02,-20.50
2022,03,01,00,03,-20.50
2022,03,01,00,04,-20.50
2022,03,01,00,05,-20.50
2022,03,01,00,06,-20.50
2022,03,01,00,07,-20.50
2022,03,01,00,08,-20.50
2022,03,01,00,09,-20.50
2022,03,01,00,10,-20.50
2022,03,01,00,11,-20.50
2022,03,01,00,12,-20.50
2022,03,01,00,13,-20.50
2022,03,01,00,14,-20.50
2022,03,01,00,15,-20.40
2022,03,01,00,16,-20.40
2022,03,01,00,17,-20.40
2022,03,01,00,18,-20.40
2022,03,01,00,19,-20.50
2022,03,01,00,20,-20.40
2022,03,01,00,21,-20.40
2022,03,01,00,22,-20.40
2022,03,01,00,23,-20.40
2022,03,01,00,24,-20.40
2022,03,01,00,25,-20.40
2022,03,01,00,26,-20.40
2022,03,01,00,27,-20.50
2022,03,01,00,28,-20.40
2022,03,01,00,29,-20.40
2022,03,01,00,30,-20.40
2022,03,01,00,31,-20.40
2022,03,01,00,32,-20.40
2022,03,01,00,33,-20.50
2022,03,01,00,34,-20.40
2022,03,01,00,35,-20.20
2022,03,01,00,36,-20.30
2022,03,01,00,37,-20.30
2022,03,01,00,38,-20.30
2022,03,01,00,39,-20.30
2022,03,01,00,40,-20.40
2022,03,01,00,41,-20.40
2022,03,01,00,42,-20.40
2022,03,01,00,43,-20.30
2022,03,01,00,44,-20.20
2022,03,01,00,45,-20.20
2022,03,01,00,46,-20.20
2022,03,01,00,47,-20.20
2022,03,01,00,48,-20.20
2022,03,01,00,49,-20.20
2022,03,01,00,50,-20.30
2022,03,01,00,51,-20.30
2022,03,01,00,52,-20.30
2022,03,01,00,53,-20.20
2022,03,01,00,54,-20.30
2022,03,01,00,55,-20.20
2022,03,01,00,56,-20.20
2022,03,01,00,57,-20.20
2022,03,01,00,58,-20.20
2022,03,01,00,59,-20.20
2022,03,01,01,00,-20.20
2022,03,01,01,01,-20.20
2022,03,01,01,02,-20.20
2022,03,01,01,03,-20.20
2022,03,01,01,04,-20.30
2022,03,01,01,05,-20.40
2022,03,01,01,06,-20.50
2022,03,01,01,07,-20.40
2022,03,01,01,08,-20.40
2022,03,01,01,09,-20.40
2022,03,01,01,10,-20.40
2022,03,01,01,11,-20.40
2022,03,01,01,12,-20.40
2022,03,01,01,13,-20.40
2022,03,01,01,14,-20.40
2022,03,01,01,15,-20.40
2022,03,01,01,16,-20.40
2022,03,01,01,17,-20.40
2022,03,01,01,18,-20.40
2022,03,01,01,19,-20.50
2022,03,01,01,20,-20.50
2022,03,01,01,21,-20.40
2022,03,01,01,22,-20.50
2022,03,01,01,23,-20.40
2022,03,01,01,24,-20.50
2022,03,01,01,25,-20.50
2022,03,01,01,26,-20.40
2022,03,01,01,27,-20.40
2022,03,01,01,28,-20.40
2022,03,01,01,29,-20.40
2022,03,01,01,30,-20.40
2022,03,01,01,31,-20.30
2022,03,01,01,32,-20.30
2022,03,01,01,33,-20.20
2022,03,01,01,34,-20.20
2022,03,01,01,35,-20.20
2022,03,01,01,36,-20.20
2022,03,01,01,37,-20.20
2022,03,01,01,38,-20.20
2022,03,01,01,39,-20.20
2022,03,01,01,40,-20.20
2022,03,01,01,41,-20.30
2022,03,01,01,42,-20.20
2022,03,01,01,43,-20.30
2022,03,01,01,44,-20.30
2022,03,01,01,45,-20.30
2022,03,01,01,46,-20.20
2022,03,01,01,47,-20.20
2022,03,01,01,48,-20.20
2022,03,01,01,49,-20.20
2022,03,01,01,50,-20.20
2022,03,01,01,51,-20.20
2022,03,01,01,52,-20.20
2022,03,01,01,53,-20.20
2022,03,01,01,54,-20.10
2022,03,01,01,55,-20.10
2022,03,01,01,56,-20.10
2022,03,01,01,57,-19.90
2022,03,01,01,58,-19.90
2022,03,01,01,59,-19.90
2022,03,01,02,00,-19.90
2022,03,01,02,01,-19.90
2022,03,01,02,02,-19.90
2022,03,01,02,03,-19.80
2022,03,01,02,04,-20.00
2022,03,01,02,05,-20.10
2022,03,01,02,06,-19.90
2022,03,01,02,07,-19.90
2022,03,01,02,08,-19.90
2022,03,01,02,09,-19.90
2022,03,01,02,10,-19.90
2022,03,01,02,11,-19.90
2022,03,01,02,12,-19.90
2022,03,01,02,13,-19.90
2022,03,01,02,14,-19.90
2022,03,01,02,15,-19.80
2022,03,01,02,16,-19.80
2022,03,01,02,17,-19.80
2022,03,01,02,18,-19.80
2022,03,01,02,19,-19.80
2022,03,01,02,20,-19.90
2022,03,01,02,21,-19.90
2022,03,01,02,22,-19.90
2022,03,01,02,23,-19.90
2022,03,01,02,24,-19.90
2022,03,01,02,25,-19.90
2022,03,01,02,26,-19.80
2022,03,01,02,27,-19.80
2022,03,01,02,28,-19.80
2022,03,01,02,29,-19.90
2022,03,01,02,30,-19.90
2022,03,01,02,31,-19.90
2022,03,01,02,32,-19.90
2022,03,01,02,33,-19.90
2022,03,01,02,34,-19.90
2022,03,01,02,35,-19.90
2022,03,01,02,36,-19.90
2022,03,01,02,37,-19.90
2022,03,01,02,38,-19.90
2022,03,01,02,39,-19.90
2022,03,01,02,40,-19.90
2022,03,01,02,41,-19.90
2022,03,01,02,42,-20.00
2022,03,01,02,43,-20.10
2022,03,01,02,44,-20.20
2022,03,01,02,45,-20.10
2022,03,01,02,46,-20.10
2022,03,01,02,47,-20.10
2022,03,01,02,48,-20.10
2022,03,01,02,49,-20.20
2022,03,01,02,50,-20.10
2022,03,01,02,51,-20.20
2022,03,01,02,52,-20.20
2022,03,01,02,53,-20.20
2022,03,01,02,54,-20.20
2022,03,01,02,55,-20.30
2022,03,01,02,56,-20.30
2022,03,01,02,57,-20.40
2022,03,01,02,58,-20.20
2022,03,01,02,59,-20.30
2022,03,01,03,00,-20.30
2022,03,01,03,01,-20.30
2022,03,01,03,02,-20.30
2022,03,01,03,03,-20.40
2022,03,01,03,04,-20.30
2022,03,01,03,05,-20.20
2022,03,01,03,06,-20.40
2022,03,01,03,07,-20.40
2022,03,01,03,08,-20.20
2022,03,01,03,09,-20.20
2022,03,01,03,10,-20.20
2022,03,01,03,11,-20.20
2022,03,01,03,12,-20.10
2022,03,01,03,13,-18.20
2022,03,01,03,14,-17.10
2022,03,01,03,15,-14.70
2022,03,01,03,16,-14.40
2022,03,01,03,17,-14.50
2022,03,01,03,18,-14.40
2022,03,01,03,19,-11.90
2022,03,01,03,20,-12.60
2022,03,01,03,21,-12.90
2022,03,01,03,22,-12.90
2022,03,01,03,23,-14.20
2022,03,01,03,24,-14.50
2022,03,01,03,25,-13.20
2022,03,01,03,26,-13.10
2022,03,01,03,27,-12.50
2022,03,01,03,28,-11.80
2022,03,01,03,29,-11.90
2022,03,01,03,30,-11.80
2022,03,01,03,31,-11.80
2022,03,01,03,32,-11.80
2022,03,01,03,33,-12.30
2022,03,01,03,34,-13.10
2022,03,01,03,35,-13.50
2022,03,01,03,36,-15.50
2022,03,01,03,37,-14.10
2022,03,01,03,38,-14.70
2022,03,01,03,39,-13.20
2022,03,01,03,40,-13.80
2022,03,01,03,41,-15.70
2022,03,01,03,42,-12.20
2022,03,01,03,43,-12.40
2022,03,01,03,44,-15.40
2022,03,01,03,45,-11.80
2022,03,01,03,46,-11.40
2022,03,01,03,47,-11.50
2022,03,01,03,48,-11.60
2022,03,01,03,49,-11.70
2022,03,01,03,50,-12.40
2022,03,01,03,51,-16.60
2022,03,01,03,52,-13.80
2022,03,01,03,53,-13.50
2022,03,01,03,54,-14.00
2022,03,01,03,55,-14.20
2022,03,01,03,56,-13.70
2022,03,01,03,57,-13.20
2022,03,01,03,58,-12.50
2022,03,01,03,59,-11.50
2022,03,01,04,00,-11.40
2022,03,01,04,01,-11.30
2022,03,01,04,02,-11.30
2022,03,01,04,03,-11.30
2022,03,01,04,04,-11.20
2022,03,01,04,05,-11.10
2022,03,01,04,06,-11.10
2022,03,01,04,07,-11.20
2022,03,01,04,08,-11.10
2022,03,01,04,09,-11.10
2022,03,01,04,10,-11.20
2022,03,01,04,11,-11.20
2022,03,01,04,12,-11.10
2022,03,01,04,13,-11.20
2022,03,01,04,14,-12.00
2022,03,01,04,15,-13.00
2022,03,01,04,16,-14.50
2022,03,01,04,17,-14.00
2022,03,01,04,18,-13.80
2022,03,01,04,19,-14.10
2022,03,01,04,20,-13.30
2022,03,01,04,21,-12.70
2022,03,01,04,22,-13.40
2022,03,01,04,23,-12.40
2022,03,01,04,24,-11.70
2022,03,01,04,25,-13.80
2022,03,01,04,26,-12.70
2022,03,01,04,27,-17.40
2022,03,01,04,28,-18.10
2022,03,01,04,29,-19.50
2022,03,01,04,30,-19.10
2022,03,01,04,31,-19.30
2022,03,01,04,32,-19.10
2022,03,01,04,33,-17.50
2022,03,01,04,34,-16.20
2022,03,01,04,35,-17.60
2022,03,01,04,36,-19.00
2022,03,01,04,37,-18.20
2022,03,01,04,38,-17.90
2022,03,01,04,39,-18.00
2022,03,01,04,40,-17.30
2022,03,01,04,41,-16.20
2022,03,01,04,42,-13.20
2022,03,01,04,43,-16.20
2022,03,01,04,44,-18.20
2022,03,01,04,45,-17.80
2022,03,01,04,46,-17.60
2022,03,01,04,47,-17.80
2022,03,01,04,48,-17.90
2022,03,01,04,49,-17.60
2022,03,01,04,50,-17.50
2022,03,01,04,51,-17.00
2022,03,01,04,52,-16.70
2022,03,01,04,53,-15.80
2022,03,01,04,54,-16.80
2022,03,01,04,55,-17.80
2022,03,01,04,56,-17.80
2022,03,01,04,57,-17.90
2022,03,01,04,58,-18.20
2022,03,01,04,59,-18.00
2022,03,01,05,00,-17.60
2022,03,01,05,01,-17.80
2022,03,01,05,02,-17.60
2022,03,01,05,03,-17.70
2022,03,01,05,04,-17.80
2022,03,01,05,05,-17.70
2022,03,01,05,06,-17.30
2022,03,01,05,07,-17.20
2022,03,01,05,08,-16.90
2022,03,01,05,09,-17.20
2022,03,01,05,10,-17.40
2022,03,01,05,11,-17.60
2022,03,01,05,12,-17.30
2022,03,01,05,13,-17.10
2022,03,01,05,14,-17.40
2022,03,01,05,15,-16.70
2022,03,01,05,16,-16.70
2022,03,01,05,17,-16.60
2022,03,01,05,18,-16.70
2022,03,01,05,19,-16.10
2022,03,01,05,20,-16.00
2022,03,01,05,21,-16.30
2022,03,01,05,22,-16.20
2022,03,01,05,23,-15.70
2022,03,01,05,24,-16.00
2022,03,01,05,25,-16.90
2022,03,01,05,26,-16.60
2022,03,01,05,27,-16.60
2022,03,01,05,28,-16.70
2022,03,01,05,29,-17.20
2022,03,01,05,30,-16.30
2022,03,01,05,31,-16.40
2022,03,01,05,32,-16.10
2022,03,01,05,33,-16.00
2022,03,01,05,34,-15.80
2022,03,01,05,35,-15.80
2022,03,01,05,36,-15.80
2022,03,01,05,37,-15.70
2022,03,01,05,38,-15.90
2022,03,01,05,39,-15.30
2022,03,01,05,40,-15.50
2022,03,01,05,41,-15.80
2022,03,01,05,42,-16.80
2022,03,01,05,43,-16.20
2022,03,01,05,44,-15.60
2022,03,01,05,45,-16.00
2022,03,01,05,46,-15.90
2022,03,01,05,47,-15.80
2022,03,01,05,48,-15.70
2022,03,01,05,49,-15.50
2022,03,01,05,50,-15.20
2022,03,01,05,51,-15.10
2022,03,01,05,52,-15.10
2022,03,01,05,53,-15.20
2022,03,01,05,54,-15.00
2022,03,01,05,55,-15.20
2022,03,01,05,56,-15.30
2022,03,01,05,57,-15.90
2022,03,01,05,58,-16.40
2022,03,01,05,59,-16.40
2022,03,01,06,00,-16.40
2022,03,01,06,01,-16.40
2022,03,01,06,02,-16.40
2022,03,01,06,03,-16.40
2022,03,01,06,04,-16.40
2022,03,01,06,05,-16.40
2022,03,01,06,06,-14.80
2022,03,01,06,07,-14.60
2022,03,01,06,08,-14.20
2022,03,01,06,09,-13.90
2022,03,01,06,10,-13.60
2022,03,01,06,11,-13.40
2022,03,01,06,12,-12.90
2022,03,01,06,13,-12.50
2022,03,01,06,14,-12.20
2022,03,01,06,15,-12.00
2022,03,01,06,16,-11.80
2022,03,01,06,17,-12.00
2022,03,01,06,18,-12.60
2022,03,01,06,19,-13.40
2022,03,01,06,20,-12.90
2022,03,01,06,21,-12.20
2022,03,01,06,22,-13.20
2022,03,01,06,23,-13.10
2022,03,01,06,24,-13.10
2022,03,01,06,25,-13.30
2022,03,01,06,26,-14.70
2022,03,01,06,27,-14.80
2022,03,01,06,28,-14.50
2022,03,01,06,29,-14.40
2022,03,01,06,30,-14.10
2022,03,01,06,31,-15.40
2022,03,01,06,32,-14.90
2022,03,01,06,33,-15.00
2022,03,01,06,34,-15.10
2022,03,01,06,35,-15.20
2022,03,01,06,36,-14.80
2022,03,01,06,37,-15.00
2022,03,01,06,38,-14.60
2022,03,01,06,39,-14.30
2022,03,01,06,40,-14.70
2022,03,01,06,41,-14.20
2022,03,01,06,42,-13.50
2022,03,01,06,43,-14.00
2022,03,01,06,44,-14.50
2022,03,01,06,45,-14.20
2022,03,01,06,46,-14.20
2022,03,01,06,47,-13.50
2022,03,01,06,48,-13.30
2022,03,01,06,49,-13.70
2022,03,01,06,50,-13.80
2022,03,01,06,51,-13.30
2022,03,01,06,52,-13.70
2022,03,01,06,53,-13.90
2022,03,01,06,54,-13.20
2022,03,01,06,55,-13.40
2022,03,01,06,56,-13.40
2022,03,01,06,57,-13.90
2022,03,01,06,58,-13.30
2022,03,01,06,59,-13.50
2022,03,01,07,00,-14.40
2022,03,01,07,01,-14.20
2022,03,01,07,02,-13.30
2022,03,01,07,03,-13.20
2022,03,01,07,04,-14.10
2022,03,01,07,05,-13.50
2022,03,01,07,06,-13.80
2022,03,01,07,07,-14.70
2022,03,01,07,08,-14.10
2022,03,01,07,09,-14.00
2022,03,01,07,10,-14.10
2022,03,01,07,11,-14.10
2022,03,01,07,12,-14.40
2022,03,01,07,13,-14.30
2022,03,01,07,14,-14.00
2022,03,01,07,15,-14.30
2022,03,01,07,16,-14.40
2022,03,01,07,17,-14.10
2022,03,01,07,18,-13.90
2022,03,01,07,19,-13.60
2022,03,01,07,20,-13.60
2022,03,01,07,21,-13.50
2022,03,01,07,22,-13.70
2022,03,01,07,23,-13.70
2022,03,01,07,24,-13.50
2022,03,01,07,25,-13.50
2022,03,01,07,26,-13.30
2022,03,01,07,27,-13.20
2022,03,01,07,28,-13.10
2022,03,01,07,29,-13.40
2022,03,01,07,30,-13.60
2022,03,01,07,31,-13.70
2022,03,01,07,32,-13.40
2022,03,01,07,33,-13.20
2022,03,01,07,34,-13.70
2022,03,01,07,35,-13.10
2022,03,01,07,36,-12.80
2022,03,01,07,37,-13.00
2022,03,01,07,38,-12.30
2022,03,01,07,39,-12.20
2022,03,01,07,40,-13.10
2022,03,01,07,41,-13.10
2022,03,01,07,42,-12.90
2022,03,01,07,43,-12.40
2022,03,01,07,44,-13.40
2022,03,01,07,45,-13.50
2022,03,01,07,46,-13.50
2022,03,01,07,47,-13.80
2022,03,01,07,48,-13.30
2022,03,01,07,49,-12.90
2022,03,01,07,50,-13.30
2022,03,01,07,51,-13.30
2022,03,01,07,52,-13.40
2022,03,01,07,53,-13.50
2022,03,01,07,54,-13.20
2022,03,01,07,55,-13.00
2022,03,01,07,56,-13.00
2022,03,01,07,57,-13.30
2022,03,01,07,58,-13.10
2022,03,01,07,59,-13.00
2022,03,01,08,00,-13.00
2022,03,01,08,01,-13.00
2022,03,01,08,02,-12.90
2022,03,01,08,03,-12.80
2022,03,01,08,04,-12.70
2022,03,01,08,05,-12.70
2022,03,01,08,06,-12.70
2022,03,01,08,07,-12.70
2022,03,01,08,08,-12.50
2022,03,01,08,09,-12.60
2022,03,01,08,10,-12.60
2022,03,01,08,11,-12.40
2022,03,01,08,12,-12.30
2022,03,01,08,13,-12.20
2022,03,01,08,14,-12.30
2022,03,01,08,15,-12.90
2022,03,01,08,16,-14.00
2022,03,01,08,17,-13.50
2022,03,01,08,18,-13.20
2022,03,01,08,19,-13.90
2022,03,01,08,20,-13.40
2022,03,01,08,21,-13.30
2022,03,01,08,22,-12.80
2022,03,01,08,23,-12.60
2022,03,01,08,24,-12.40
2022,03,01,08,25,-12.60
2022,03,01,08,26,-13.80
2022,03,01,08,27,-13.70
2022,03,01,08,28,-13.00
2022,03,01,08,29,-12.60
2022,03,01,08,30,-12.70
2022,03,01,08,31,-13.30
2022,03,01,08,32,-13.50
2022,03,01,08,33,-13.30
2022,03,01,08,34,-13.40
2022,03,01,08,35,-12.80
2022,03,01,08,36,-12.50
2022,03,01,08,37,-12.20
2022,03,01,08,38,-12.30
2022,03,01,08,39,-12.10
2022,03,01,08,40,-12.10
2022,03,01,08,41,-12.40
2022,03,01,08,42,-12.70
2022,03,01,08,43,-12.40
2022,03,01,08,44,-12.80
2022,03,01,08,45,-12.70
2022,03,01,08,46,-12.60
2022,03,01,08,47,-11.70
2022,03,01,08,48,-11.90
2022,03,01,08,49,-12.60
2022,03,01,08,50,-12.40
2022,03,01,08,51,-13.00
2022,03,01,08,52,-13.50
2022,03,01,08,53,-14.00
2022,03,01,08,54,-13.60
2022,03,01,08,55,-13.50
2022,03,01,08,56,-13.50
2022,03,01,08,57,-13.50
2022,03,01,08,58,-13.70
2022,03,01,08,59,-13.90
2022,03,01,09,00,-14.00
2022,03,01,09,01,-13.80
2022,03,01,09,02,-13.80
2022,03,01,09,03,-13.60
2022,03,01,09,04,-13.60
2022,03,01,09,05,-13.60
2022,03,01,09,06,-13.10
2022,03,01,09,07,-13.40
2022,03,01,09,08,-13.60
2022,03,01,09,09,-13.50
2022,03,01,09,10,-14.10
2022,03,01,09,11,-14.50
2022,03,01,09,12,-14.00
2022,03,01,09,13,-14.00
2022,03,01,09,14,-14.00
2022,03,01,09,15,-14.00
2022,03,01,09,16,-14.00
2022,03,01,09,17,-13.90
2022,03,01,09,18,-14.10
2022,03,01,09,19,-14.00
2022,03,01,09,20,-14.00
2022,03,01,09,21,-14.40
2022,03,01,09,22,-14.60
2022,03,01,09,23,-14.60
2022,03,01,09,24,-14.60
2022,03,01,09,25,-14.50
2022,03,01,09,26,-14.20
2022,03,01,09,27,-14.20
2022,03,01,09,28,-14.20
2022,03,01,09,29,-14.10
2022,03,01,09,30,-13.80
2022,03,01,09,31,-14.10
2022,03,01,09,32,-14.10
2022,03,01,09,33,-14.00
2022,03,01,09,34,-14.00
2022,03,01,09,35,-13.80
2022,03,01,09,36,-13.00
2022,03,01,09,37,-12.90
2022,03,01,09,38,-13.70
2022,03,01,09,39,-14.20
2022,03,01,09,40,-13.80
2022,03,01,09,41,-13.30
2022,03,01,09,42,-14.20
2022,03,01,09,43,-15.00
2022,03,01,09,44,-15.50
2022,03,01,09,45,-14.90
2022,03,01,09,46,-15.00
2022,03,01,09,47,-15.00
2022,03,01,09,48,-14.50
2022,03,01,09,49,-14.40
2022,03,01,09,50,-14.20
2022,03,01,09,51,-14.50
2022,03,01,09,52,-14.40
2022,03,01,09,53,-14.40
2022,03,01,09,54,-14.40
2022,03,01,09,55,-14.30
2022,03,01,09,56,-14.10
2022,03,01,09,57,-14.20
2022,03,01,09,58,-13.70
2022,03,01,09,59,-14.00
2022,03,01,10,00,-13.80
2022,03,01,10,01,-13.70
2022,03,01,10,02,-14.10
2022,03,01,10,03,-14.30
2022,03,01,10,04,-14.30
2022,03,01,10,05,-14.50
2022,03,01,10,06,-14.50
2022,03,01,10,07,-14.50
2022,03,01,10,08,-14.60
2022,03,01,10,09,-14.40
2022,03,01,10,10,-14.20
2022,03,01,10,11,-14.60
2022,03,01,10,12,-14.80
2022,03,01,10,13,-14.70
2022,03,01,10,14,-14.40
2022,03,01,10,15,-13.80
2022,03,01,10,16,-14.10
2022,03,01,10,17,-14.00
2022,03,01,10,18,-14.00
2022,03,01,10,19,-14.00
2022,03,01,10,20,-13.90
2022,03,01,10,21,-14.00
2022,03,01,10,22,-14.00
2022,03,01,10,23,-14.00
2022,03,01,10,24,-13.90
2022,03,01,10,25,-13.90
2022,03,01,10,26,-13.80
2022,03,01,10,27,-13.80
2022,03,01,10,28,-13.80
2022,03,01,10,29,-13.80
2022,03,01,10,30,-13.70
2022,03,01,10,31,-13.80
2022,03,01,10,32,-13.80
2022,03,01,10,33,-13.70
2022,03,01,10,34,-13.50
2022,03,01,10,35,-13.70
2022,03,01,10,36,-13.80
2022,03,01,10,37,-13.80
2022,03,01,10,38,-13.70
2022,03,01,10,39,-13.70
2022,03,01,10,40,-13.50
2022,03,01,10,41,-13.50
2022,03,01,10,42,-13.50
2022,03,01,10,43,-13.50
2022,03,01,10,44,-13.50
2022,03,01,10,45,-13.50
2022,03,01,10,46,-14.20
2022,03,01,10,47,-14.20
2022,03,01,10,48,-13.90
2022,03,01,10,49,-14.10
2022,03,01,10,50,-13.80
2022,03,01,10,51,-14.70
2022,03,01,10,52,-15.10
2022,03,01,10,53,-14.90
2022,03,01,10,54,-14.80
2022,03,01,10,55,-14.70
2022,03,01,10,56,-14.70
2022,03,01,10,57,-14.90
2022,03,01,10,58,-14.90
2022,03,01,10,59,-14.70
2022,03,01,11,00,-14.70
2022,03,01,11,01,-14.60
2022,03,01,11,02,-14.60
2022,03,01,11,03,-14.40
2022,03,01,11,04,-14.20
2022,03,01,11,05,-14.50
2022,03,01,11,06,-14.40
2022,03,01,11,07,-14.30
2022,03,01,11,08,-14.10
2022,03,01,11,09,-14.50
2022,03,01,11,10,-14.40
2022,03,01,11,11,-14.60
2022,03,01,11,12,-15.00
2022,03,01,11,13,-14.90
2022,03,01,11,14,-14.80
2022,03,01,11,15,-14.60
2022,03,01,11,16,-14.80
2022,03,01,11,17,-14.70
2022,03,01,11,18,-14.70
2022,03,01,11,19,-14.70
2022,03,01,11,20,-14.30
2022,03,01,11,21,-14.30
2022,03,01,11,22,-14.30
2022,03,01,11,23,-13.90
2022,03,01,11,24,-13.90
2022,03,01,11,25,-13.80
2022,03,01,11,26,-13.70
2022,03,01,11,27,-13.70
2022,03,01,11,28,-13.50
2022,03,01,11,29,-13.30
2022,03,01,11,30,-13.20
2022,03,01,11,31,-13.20
2022,03,01,11,32,-13.40
2022,03,01,11,33,-13.30
2022,03,01,11,34,-13.10
2022,03,01,11,35,-13.00
2022,03,01,11,36,-13.10
2022,03,01,11,37,-12.90
2022,03,01,11,38,-12.90
2022,03,01,11,39,-13.10
2022,03,01,11,40,-13.10
2022,03,01,11,41,-13.00
2022,03,01,11,42,-13.00
2022,03,01,11,43,-13.20
2022,03,01,11,44,-12.80
2022,03,01,11,45,-12.50
2022,03,01,11,46,-12.50
2022,03,01,11,47,-12.50
2022,03,01,11,48,-12.40
2022,03,01,11,49,-12.70
2022,03,01,11,50,-12.70
2022,03,01,11,51,-12.70
2022,03,01,11,52,-12.80
2022,03,01,11,53,-12.70
2022,03,01,11,54,-12.60
2022,03,01,11,55,-12.80
2022,03,01,11,56,-12.90
2022,03,01,11,57,-12.90
2022,03,01,11,58,-12.60
2022,03,01,11,59,-12.40
2022,03,01,12,00,-12.10
2022,03,01,12,01,-12.00
2022,03,01,12,02,-11.80
2022,03,01,12,03,-11.50
2022,03,01,12,04,-11.70
2022,03,01,12,05,-12.30
2022,03,01,12,06,-12.80
2022,03,01,12,07,-12.80
2022,03,01,12,08,-12.70
2022,03,01,12,09,-12.50
2022,03,01,12,10,-12.40
2022,03,01,12,11,-12.30
2022,03,01,12,12,-12.30
2022,03,01,12,13,-13.30
2022,03,01,12,14,-13.60
2022,03,01,12,15,-13.60
2022,03,01,12,16,-13.10
2022,03,01,12,17,-12.60
2022,03,01,12,18,-12.60
2022,03,01,12,19,-12.90
2022,03,01,12,20,-12.40
2022,03,01,12,21,-12.80
2022,03,01,12,22,-12.70
2022,03,01,12,23,-12.20
2022,03,01,12,24,-12.40
2022,03,01,12,25,-12.70
2022,03,01,12,26,-13.70
2022,03,01,12,27,-13.10
2022,03,01,12,28,-13.10
2022,03,01,12,29,-13.10
2022,03,01,12,30,-12.90
2022,03,01,12,31,-12.80
2022,03,01,12,32,-12.50
2022,03,01,12,33,-12.30
2022,03,01,12,34,-12.20
2022,03,01,12,35,-12.00
2022,03,01,12,36,-12.00
2022,03,01,12,37,-12.80
2022,03,01,12,38,-12.80
2022,03,01,12,39,-12.00
2022,03,01,12,40,-11.80
2022,03,01,12,41,-11.90
2022,03,01,12,42,-11.80
2022,03,01,12,43,-11.50
2022,03,01,12,44,-11.30
2022,03,01,12,45,-12.20
2022,03,01,12,46,-11.90
2022,03,01,12,47,-11.80
2022,03,01,12,48,-11.90
2022,03,01,12,49,-12.10
2022,03,01,12,50,-12.10
2022,03,01,12,51,-12.00
2022,03,01,12,52,-11.90
2022,03,01,12,53,-11.60
2022,03,01,12,54,-11.80
2022,03,01,12,55,-11.90
2022,03,01,12,56,-12.00
2022,03,01,12,57,-11.90
2022,03,01,12,58,-12.00
2022,03,01,12,59,-12.00
2022,03,01,13,00,-11.90
2022,03,01,13,01,-12.00
2022,03,01,13,02,-12.00
2022,03,01,13,03,-11.80
2022,03,01,13,04,-11.70
2022,03,01,13,05,-11.70
2022,03,01,13,06,-11.70
2022,03,01,13,07,-11.70
2022,03,01,13,08,-11.70
2022,03,01,13,09,-11.60
2022,03,01,13,10,-11.30
2022,03,01,13,11,-11.40
2022,03,01,13,12,-11.10
2022,03,01,13,13,-11.10
2022,03,01,13,14,-11.50
2022,03,01,13,15,-11.60
2022,03,01,13,16,-11.90
2022,03,01,13,17,-12.40
2022,03,01,13,18,-12.50
2022,03,01,13,19,-12.40
2022,03,01,13,20,-12.00
2022,03,01,13,21,-12.10
2022,03,01,13,22,-12.20
2022,03,01,13,23,-12.10
2022,03,01,13,24,-12.00
2022,03,01,13,25,-12.30
2022,03,01,13,26,-12.20
2022,03,01,13,27,-12.50
2022,03,01,13,28,-12.50
2022,03,01,13,29,-12.20
2022,03,01,13,30,-12.30
2022,03,01,13,31,-12.00
2022,03,01,13,32,-12.00
2022,03,01,13,33,-12.20
2022,03,01,13,34,-12.10
2022,03,01,13,35,-12.10
2022,03,01,13,36,-13.30
2022,03,01,13,37,-14.00
2022,03,01,13,38,-13.90
2022,03,01,13,39,-13.90
2022,03,01,13,40,-13.80
2022,03,01,13,41,-12.80
2022,03,01,13,42,-12.60
2022,03,01,13,43,-12.70
2022,03,01,13,44,-12.50
2022,03,01,13,45,-13.10
2022,03,01,13,46,-12.80
2022,03,01,13,47,-12.90
2022,03,01,13,48,-12.50
2022,03,01,13,49,-12.50
2022,03,01,13,50,-13.00
2022,03,01,13,51,-13.20
2022,03,01,13,52,-13.60
2022,03,01,13,53,-13.60
2022,03,01,13,54,-13.20
2022,03,01,13,55,-13.00
2022,03,01,13,56,-13.80
2022,03,01,13,57,-13.60
2022,03,01,13,58,-13.40
2022,03,01,13,59,-13.60
2022,03,01,14,00,-13.20
2022,03,01,14,01,-13.10
2022,03,01,14,02,-13.20
2022,03,01,14,03,-13.10
2022,03,01,14,04,-13.10
2022,03,01,14,05,-13.10
2022,03,01,14,06,-13.00
2022,03,01,14,07,-13.00
2022,03,01,14,08,-13.20
2022,03,01,14,09,-13.30
2022,03,01,14,10,-13.30
2022,03,01,14,11,-13.40
2022,03,01,14,12,-13.30
2022,03,01,14,13,-13.10
2022,03,01,14,14,-13.10
2022,03,01,14,15,-13.00
2022,03,01,14,16,-13.00
2022,03,01,14,17,-12.70
2022,03,01,14,18,-12.50
2022,03,01,14,19,-12.20
2022,03,01,14,20,-12.00
2022,03,01,14,21,-11.60
2022,03,01,14,22,-11.40
2022,03,01,14,23,-11.60
2022,03,01,14,24,-12.10
2022,03,01,14,25,-12.00
2022,03,01,14,26,-12.10
2022,03,01,14,27,-12.20
2022,03,01,14,28,-12.10
2022,03,01,14,29,-12.70
2022,03,01,14,30,-13.10
2022,03,01,14,31,-12.90
2022,03,01,14,32,-12.80
2022,03,01,14,33,-12.50
2022,03,01,14,34,-12.50
2022,03,01,14,35,-12.10
2022,03,01,14,36,-12.20
2022,03,01,14,37,-12.40
2022,03,01,14,38,-12.70
2022,03,01,14,39,-12.50
2022,03,01,14,40,-12.30
2022,03,01,14,41,-12.20
2022,03,01,14,42,-12.10
2022,03,01,14,43,-12.10
2022,03,01,14,44,-11.90
2022,03,01,14,45,-11.80
2022,03,01,14,46,-11.80
2022,03,01,14,47,-11.50
2022,03,01,14,48,-11.50
2022,03,01,14,49,-11.40
2022,03,01,14,50,-11.20
2022,03,01,14,51,-10.80
2022,03,01,14,52,-10.60
2022,03,01,14,53,-10.10
2022,03,01,14,54,-10.90
2022,03,01,14,55,-11.60
2022,03,01,14,56,-11.20
2022,03,01,14,57,-11.10
2022,03,01,14,58,-10.90
2022,03,01,14,59,-10.70
2022,03,01,15,00,-10.70
2022,03,01,15,01,-11.50
2022,03,01,15,02,-11.70
2022,03,01,15,03,-11.40
2022,03,01,15,04,-11.10
2022,03,01,15,05,-10.90
2022,03,01,15,06,-11.30
2022,03,01,15,07,-11.40
2022,03,01,15,08,-11.20
2022,03,01,15,09,-11.00
2022,03,01,15,10,-11.00
2022,03,01,15,11,-10.90
2022,03,01,15,12,-11.00
2022,03,01,15,13,-10.50
2022,03,01,15,14,-10.40
2022,03,01,15,15,-10.20
2022,03,01,15,16,-10.10
2022,03,01,15,17,-10.00
2022,03,01,15,18,-9.80
2022,03,01,15,19,-10.00
2022,03,01,15,20,-10.20
2022,03,01,15,21,-11.00
2022,03,01,15,22,-11.20
2022,03,01,15,23,-10.60
2022,03,01,15,24,-10.80
2022,03,01,15,25,-10.90
2022,03,01,15,26,-10.70
2022,03,01,15,27,-10.70
2022,03,01,15,28,-10.80
2022,03,01,15,29,-10.00
2022,03,01,15,30,-11.30
2022,03,01,15,31,-11.20
2022,03,01,15,32,-10.70
2022,03,01,15,33,-10.60
2022,03,01,15,34,-10.70
2022,03,01,15,35,-10.60
2022,03,01,15,36,-10.10
2022,03,01,15,37,-9.90
2022,03,01,15,38,-9.80
2022,03,01,15,39,-9.60
2022,03,01,15,40,-9.50
2022,03,01,15,41,-9.40
2022,03,01,15,42,-10.00
2022,03,01,15,43,-9.70
2022,03,01,15,44,-9.90
2022,03,01,15,45,-10.70
2022,03,01,15,46,-10.50
2022,03,01,15,47,-10.30
2022,03,01,15,48,-10.00
2022,03,01,15,49,-9.90
2022,03,01,15,50,-9.90
2022,03,01,15,51,-10.10
2022,03,01,15,52,-10.00
2022,03,01,15,53,-10.00
2022,03,01,15,54,-10.50
2022,03,01,15,55,-10.60
2022,03,01,15,56,-10.20
2022,03,01,15,57,-10.10
2022,03,01,15,58,-10.40
2022,03,01,15,59,-10.10
2022,03,01,16,00,-10.00
2022,03,01,16,01,-10.20
2022,03,01,16,02,-10.40
2022,03,01,16,03,-9.90
2022,03,01,16,04,-9.80
2022,03,01,16,05,-9.80
2022,03,01,16,06,-9.20
2022,03,01,16,07,-9.40
2022,03,01,16,08,-9.30
2022,03,01,16,09,-10.10
2022,03,01,16,10,-10.30
2022,03,01,16,11,-11.50
2022,03,01,16,12,-11.40
2022,03,01,16,13,-11.30
2022,03,01,16,14,-11.20
2022,03,01,16,15,-11.20
2022,03,01,16,16,-10.90
2022,03,01,16,17,-10.70
2022,03,01,16,18,-10.80
2022,03,01,16,19,-10.60
2022,03,01,16,20,-10.60
2022,03,01,16,21,-10.50
2022,03,01,16,22,-10.60
2022,03,01,16,23,-10.70
2022,03,01,16,24,-10.50
2022,03,01,16,25,-11.00
2022,03,01,16,26,-11.10
2022,03,01,16,27,-11.20
2022,03,01,16,28,-11.10
2022,03,01,16,29,-11.10
2022,03,01,16,30,-11.10
2022,03,01,16,31,-11.20
2022,03,01,16,32,-11.30
2022,03,01,16,33,-11.30
2022,03,01,16,34,-11.40
2022,03,01,16,35,-11.40
2022,03,01,16,36,-11.20